Creek Data

    Home     View Charts     View Raw Data     Messages

ID Distance Battery Voltage Battery Current Internal Temp Internal Humidity External Temp Solar Input rssi snr Time Stamp Record
66801 11.3 3.90 0 34 48 37 5.1 -71 9 02/20/2026 08:15 AM 49627
66800 11.3 3.84 0 34 48 36 5 -71 8 02/20/2026 08:00 AM 49626
66799 11.3 3.99 35 32 49 36 4.5 -71 8 02/20/2026 07:45 AM 49625
66798 11.3 3.93 23 31 49 35 4.5 -69 9 02/20/2026 07:30 AM 49624
66797 11.3 3.97 0 30 50 34 4.5 -69 8 02/20/2026 07:15 AM 49623
66796 11.3 3.70 0 30 50 32 4.5 -70 9 02/20/2026 07:00 AM 49622
66795 11.3 3.64 -8 29 50 32 4.2 -70 9 02/20/2026 06:45 AM 49621
66794 11.3 3.83 -5 29 50 32 1.5 -69 9 02/20/2026 06:30 AM 49620
66793 11.3 3.67 -5 30 51 31 0.1 -70 9 02/20/2026 06:15 AM 49619
66792 11.3 3.67 -5 30 50 32 0 -69 8 02/20/2026 06:00 AM 49618
66791 11.3 3.83 -5 30 50 32 0 -69 8 02/20/2026 05:45 AM 49617
66790 11.3 3.83 -5 30 50 32 0 -70 9 02/20/2026 05:30 AM 49616
66789 11.3 3.65 -5 30 51 31 0 -70 10 02/20/2026 05:15 AM 49615
66788 11.3 3.65 -5 30 51 33 0 -69 9 02/20/2026 05:00 AM 49614
66787 11.3 3.65 -5 30 51 32 0 -70 9 02/20/2026 04:45 AM 49613
66786 11.3 3.83 -5 30 51 32 0 -70 9 02/20/2026 04:30 AM 49612
66785 11.3 3.64 -5 30 51 32 0 -69 9 02/20/2026 04:15 AM 49611
66784 11.3 3.66 -5 30 51 32 0.1 -70 8 02/20/2026 04:00 AM 49610
66783 11.3 3.65 -5 31 51 31 0 -70 9 02/20/2026 03:45 AM 49609
66782 11.3 3.67 -5 31 51 32 0.1 -71 8 02/20/2026 03:30 AM 49608
66781 11.3 3.83 -5 32 50 33 0.1 -70 9 02/20/2026 03:15 AM 49607
66780 11.3 3.65 -5 33 50 35 0 -70 9 02/20/2026 03:00 AM 49606
66779 11.3 3.66 -5 33 50 36 0 -70 8 02/20/2026 02:45 AM 49605
66778 11.3 3.84 -5 32 51 35 0 -69 8 02/20/2026 02:30 AM 49604
66777 11.3 3.67 -5 32 51 34 0.1 -69 9 02/20/2026 02:15 AM 49603